Showing default

SOLRAD 3/INJUN 1, 117

Orbit data source: Space-Track

SOLRAD 3/INJUN 1, 117 is an American payload satellite in LEO that was launched on Thu, 29 Jun 1961 UTC via a THOR ABLESTAR launch vehicle from the Air Force Eastern Test Range (AFETR). Payload-class satellites include a variety of spacecraft equipped with specific instruments for various scientific and technological missions. These include communications satellites like Starlink; space stations such as the ISS; scientific satellites like the Hubble; Earth observation satellites from companies like Planet Labs, Umbra, and HawkEye 360; GPS; miniature CubeSats for education and research; and military/defense satellites.

Loading next visibility...
Identifier
117, 1961-015B
Orbit
LEO
Country
Flag of USUS
Related business
Manufacturer
SUI/APL
Mission
Civil Science
Bus & Motor
INJUN, Unknown motor
Mass
43 kg wet, 18 kg dry
Launch date (UTC)
1961-06-29 (64 years ago)
Launch vehicle
THOR ABLESTAR
Launch site
Air Force Eastern Test Range (AFETR)
Object type
Payload
Rocket body
Debris
Shape & HBR
Sphere + Cyl, 0.5 m
Radar Cross Section
0.463 m², Medium (>0.1 m² and < 1m²)

Expand to show TLE details & history
Last TLE update: 1 day ago

TLE from 1 day ago
0 SOLRAD 3/INJUN 1
1 00117U 61015B   25259.84681464 -.00000016  00000-0  47718-4 0  9995
2 00117  66.8130 311.4953 0072507 132.7043 228.0172 13.90147885256069
Epoch: 2025-09-16T20:19Z
TLE epoch observation values (Epoch: 2025-09-16T20:19:24.784Z)
Latitude
-0.00009°
Longitude
10.61074°
Altitude
965.84 km
Speed
7.351 km/s
True Right ascension
20h 45m 58s
True Declination
0° 00' 00"
Sunlit
Object was in full shadow at epoch
Visualization orbit readout
Latitude
Unknown
Longitude
Unknown
Altitude
Unknown
Speed
Unknown
Apparent Right ascension
Unknown
Apparent Declination
Unknown
Sunlit
N/A
Visualization observer readout
Local Sidereal Time
16:13:52
Azimuth
Unknown
Elevation
Unknown
Doppler factor
Unknown
Orbital elements
Apogee altitude
979.469 km
Perigee altitude
873.541 km
Semi-major axis
7,304.642 km
Eccentricity
0.00725
Inclination
66.813°
RAAN
311.4953°
Arg. of periapsis
132.7043°
True anomaly
227.40331°
Mean anomaly
228.0172°
Eccentric anomaly
227.70988°
Mean motion
3.47652 °/min
Orbital period
103.55 mins
BSTAR
0.000047718
Loading maneuver chart data...
Computing Atmospheric mass density...

Documentation

Showing up to 5 results
|